EHI
0 0 0 0 0 0 0 0 0 0 0 0 0 1 2 2 4 14 34 59 73 73 74 80 82 85 90 93 92 89 87 83 76 68 60 53 48 45 43 42 40 35 29 28
0 0 0 0 0 0 0 0 0 0 0 0 0 1 1 1 5 16 32 52 68 74 77 81 85 86 90 93 91 87 85 81 73 66 61 55 48 44 41 43 43 35 28 26
0 0 0 0 0 0 0 0 0 0 0 0 0 1 1 2 6 13 25 39 56 71 79 84 87 87 90 92 89 83 80 76 68 64 62 55 49 43 41 45 45 36 27 24
0 0 0 0 0 0 0 0 0 0 0 0 0 1 3 5 5 8 17 28 43 60 75 84 87 87 88 88 84 80 77 72 65 62 60 55 47 41 40 45 45 37 29 25
0 0 0 0 0 0 0 0 0 0 0 0 0 0 3 6 6 7 13 21 33 48 65 78 83 83 81 78 77 78 77 73 66 60 57 52 45 38 37 40 42 38 31 25
0 0 0 0 0 0 0 0 0 0 0 0 0 0 2 5 7 8 13 19 27 39 54 69 75 73 71 68 69 73 74 70 65 59 55 50 42 36 33 34 37 36 29 25
0 0 0 0 0 0 0 0 0 0 0 0 0 0 1 4 6 9 14 19 26 34 47 61 67 65 62 62 63 65 65 61 58 57 53 48 42 35 30 29 30 29 25 23
0 0 0 0 0 0 0 0 0 0 0 0 0 1 2 5 8 11 16 22 27 34 44 54 60 59 56 56 57 57 56 53 52 53 50 46 40 33 27 25 24 23 21 19
0 0 0 0 0 0 0 0 0 0 0 0 0 3 8 11 12 15 19 23 28 37 45 50 52 52 50 49 47 48 48 47 47 47 45 41 38 32 26 23 21 19 18 16
0 0 0 0 0 0 0 0 0 0 0 0 0 3 11 16 17 19 21 24 29 39 46 48 48 47 44 41 39 40 41 40 38 38 36 35 33 30 24 21 20 18 17 17
0 0 0 0 0 0 0 0 0 0 0 0 0 2 9 17 20 23 26 29 36 44 48 49 49 45 40 37 35 35 35 34 33 31 31 32 30 26 22 20 19 19 19 19
0 0 0 0 0 0 0 0 0 0 0 0 0 3 9 16 22 30 36 41 46 51 52 52 50 46 41 38 35 33 32 31 31 31 32 33 31 27 23 21 21 21 19 17
0 0 0 0 0 0 0 0 0 0 0 0 2 7 13 18 26 37 45 50 54 56 56 55 53 49 45 42 38 34 32 29 29 32 33 33 31 28 25 22 21 19 16 14
0 0 0 0 0 0 0 0 0 0 0 0 4 11 17 20 28 37 45 50 53 58 60 57 55 52 48 44 40 37 34 30 29 30 30 29 27 26 24 21 19 16 13 11
0 0 0 0 0 0 0 0 0 0 0 1 5 13 20 25 29 34 39 44 47 52 52 50 49 49 45 40 38 36 33 31 29 26 24 23 23 24 22 19 17 14 11 10
0 0 0 0 0 0 0 0 0 0 0 1 7 17 25 29 32 34 37 41 44 42 40 39 41 42 39 35 33 32 30 29 26 22 20 20 21 22 18 15 14 13 10 9
0 0 0 0 0 0 0 0 0 1 1 4 12 23 32 37 38 39 41 44 44 41 38 36 37 36 34 30 29 27 25 22 21 21 21 21 21 18 15 12 12 11 9 9
1 1 1 0 0 0 0 0 1 3 5 9 19 31 39 43 45 45 45 45 44 43 41 38 36 32 29 26 24 23 20 16 16 18 20 21 19 16 14 12 11 10 9 9
3 3 2 0 0 0 0 0 2 7 11 13 25 38 41 40 42 41 41 42 42 41 40 37 33 28 25 23 22 21 17 13 11 12 13 14 14 13 13 13 12 11 9 9
2 3 2 0 0 1 2 2 4 11 19 24 32 38 35 33 35 36 38 39 40 38 37 34 30 27 25 22 20 16 12 9 7 6 7 8 8 9 10 12 12 11 9 7
0 1 1 0 0 1 4 4 9 21 34 41 44 41 36 37 39 38 36 36 35 34 32 29 27 27 25 20 15 10 7 5 5 6 7 7 6 6 8 11 12 11 9 7
1 2 2 2 6 12 16 16 20 35 49 55 53 46 42 41 38 32 29 29 28 28 26 24 25 26 23 17 11 7 5 4 4 6 8 8 7 5 6 8 10 10 9 8
6 8 11 14 21 31 34 32 31 38 49 54 51 43 37 32 25 21 21 21 21 20 20 20 21 23 20 15 11 9 7 6 5 5 7 8 7 6 5 6 7 8 9 9
10 16 24 30 35 38 38 35 32 33 38 44 41 33 27 22 18 17 18 16 15 15 15 16 18 18 17 14 12 11 10 8 6 5 6 7 6 5 4 3 3 4 5 6
12 18 27 32 34 32 30 28 28 28 30 33 32 27 22 19 18 17 14 11 11 11 11 13 14 14 13 12 11 10 9 8 7 6 7 6 5 3 2 1 1 1 1 2
12 17 23 27 29 28 26 26 25 25 25 26 28 25 20 17 18 17 12 9 8 9 10 10 11 11 11 10 9 8 7 7 6 6 7 7 4 2 1 0 0 0 0 0
Wind_Speed
12 12 13 14 15 16 14 12 9 6 4 5 6 7 8 9 7 8 9 11 12 12 11 11 11 12 11 10 10 10 8 8 7 6 6 5 5 4 4 4 6 7 6 6
12 16 17 15 13 13 13 13 11 6 5 5 7 8 7 7 7 6 7 9 11 11 11 11 11 11 12 11 10 10 9 9 8 6 5 4 4 4 5 4 6 7 7 7
19 13 14 15 14 13 13 13 12 9 5 6 8 9 8 7 6 8 9 10 11 12 12 12 11 11 11 11 11 10 9 8 8 7 5 4 3 3 4 5 5 6 6 6
17 19 11 13 14 13 11 12 12 10 9 8 10 8 7 8 7 8 9 9 9 10 11 11 12 11 11 11 11 9 9 8 7 7 7 7 6 6 6 5 5 6 6 6
15 15 16 14 14 13 12 10 10 11 10 12 11 9 4 7 6 6 8 9 8 10 11 9 9 10 10 10 10 9 9 8 7 7 7 7 6 5 4 4 6 6 6 6
17 15 14 14 13 12 11 10 9 11 11 13 12 11 5 5 5 5 5 5 8 9 12 11 9 9 9 9 9 9 8 7 7 7 7 7 7 6 5 5 6 6 5 5
17 17 14 12 14 14 13 10 8 9 9 10 10 10 4 7 7 5 6 6 7 9 11 11 10 10 9 9 8 8 8 7 8 8 8 7 7 6 6 5 6 6 5 5
17 16 17 14 15 13 15 15 11 8 7 6 7 7 4 10 9 7 7 8 8 10 10 10 10 9 8 9 8 7 7 7 7 7 7 6 6 5 5 5 5 5 5 5
13 15 17 16 15 17 16 16 17 14 12 7 6 6 7 9 10 9 9 8 8 9 10 11 10 9 8 8 7 6 6 6 6 6 6 6 6 5 5 4 5 4 4 4
16 11 14 17 14 17 17 15 11 12 10 9 6 7 4 7 7 9 9 9 10 10 10 10 9 8 8 7 6 6 6 5 5 4 4 5 4 4 4 3 4 4 4 4
20 13 11 15 16 16 17 17 13 9 10 10 5 2 1 7 8 9 10 10 11 10 11 9 8 8 8 7 7 5 5 5 4 4 4 3 3 4 4 4 4 3 4 4
17 12 11 13 14 15 17 17 15 10 9 10 6 3 3 4 6 9 11 10 10 11 10 10 9 9 7 7 6 6 5 4 4 3 3 3 3 3 2 2 2 2 3 4
13 10 11 12 13 14 15 16 15 13 10 9 8 5 8 7 6 10 12 11 10 10 10 9 8 8 7 6 6 5 4 4 4 3 3 3 3 2 2 1 1 2 3 3
9 10 13 13 9 12 15 15 15 14 10 10 7 6 8 8 9 10 11 11 9 9 10 10 8 7 7 6 6 5 5 4 4 4 4 3 3 2 2 2 2 2 2 3
9 12 14 14 12 10 13 14 16 16 13 9 4 6 7 7 10 11 11 11 10 9 10 9 8 7 7 6 5 5 5 5 5 5 4 3 3 3 3 3 3 2 2 3
9 10 13 14 14 12 12 14 14 14 12 9 6 5 6 7 8 9 10 11 10 8 9 9 8 8 7 6 5 5 5 6 5 4 3 3 3 4 4 4 4 4 4 4
11 9 12 12 12 12 13 14 14 12 11 8 6 8 8 8 8 9 9 10 10 8 9 8 8 7 6 6 5 5 5 5 4 4 4 3 4 4 4 5 5 5 5 5
8 9 9 10 11 14 10 9 10 9 6 6 10 13 11 11 10 9 9 9 9 9 8 7 6 7 6 6 6 5 5 5 5 4 4 4 4 5 5 5 5 5 5 5
8 8 10 10 12 11 7 6 7 7 5 8 12 14 14 15 13 9 9 9 9 8 8 7 7 7 6 6 6 6 6 6 5 5 4 4 4 5 5 6 6 5 6 6
11 8 10 9 10 9 5 5 5 4 6 9 13 12 13 12 8 7 8 9 9 8 7 7 8 8 7 6 6 6 6 6 5 5 5 5 5 5 5 5 5 5 5 5
14 13 13 12 10 4 2 4 4 3 4 9 11 11 10 7 8 11 11 10 9 8 8 8 8 7 6 6 6 7 7 6 5 5 6 6 6 5 5 5 5 5 5 6
14 13 13 12 11 4 2 2 2 4 7 9 10 11 12 14 15 13 12 10 9 8 8 8 8 7 7 7 7 8 7 6 6 6 7 7 6 5 5 5 4 4 5 5
10 7 4 3 3 8 9 9 8 8 7 9 12 12 13 14 14 13 11 10 9 8 7 7 8 8 7 7 7 8 6 6 6 7 8 7 7 6 5 5 4 3 3 4
2 3 6 8 10 11 11 11 11 10 7 10 12 12 13 13 13 12 10 9 8 8 7 6 8 8 7 7 7 7 6 6 8 8 7 7 8 8 8 7 6 5 4 4
4 2 5 9 11 11 9 10 11 9 9 12 12 12 13 13 13 12 10 9 7 7 7 7 8 8 8 8 8 7 6 7 8 7 7 8 8 9 11 11 10 9 9 6
2 2 2 5 8 9 10 9 10 10 10 12 13 13 13 13 13 12 10 8 8 8 8 8 9 9 9 9 8 7 6 6 7 7 6 6 7 8 9 10 11 18 15 18
Wind_Direction
211 226 233 233 231 252 277 289 278 253 203 213 235 237 207 201 202 179 166 163 164 171 170 166 164 162 163 163 167 168 174 168 166 172 180 186 186 183 187 186 176 175 182 177
220 228 238 248 249 252 267 276 272 249 220 232 256 251 230 204 194 175 169 172 168 167 163 167 167 169 170 169 169 170 176 173 176 181 182 182 180 187 194 191 175 181 186 180
226 232 223 238 246 246 252 259 267 269 244 229 252 251 240 224 207 176 179 184 173 169 168 166 172 172 171 174 175 177 176 175 182 176 171 179 176 193 197 182 174 184 183 187
234 244 239 231 240 241 246 251 263 270 268 254 248 249 220 207 205 196 189 181 170 161 159 169 174 175 177 176 175 172 172 175 178 175 179 184 189 196 198 184 179 182 182 186
227 229 236 234 237 238 248 256 256 261 259 265 259 260 219 192 200 201 194 177 162 156 151 163 174 167 170 172 174 171 167 173 175 182 188 191 201 204 200 187 179 180 183 191
239 231 228 234 235 238 242 250 250 255 258 251 252 256 231 180 176 199 179 163 147 151 142 153 163 154 158 164 167 167 167 173 175 186 196 201 205 205 202 192 181 181 184 194
231 237 224 223 229 220 223 229 228 226 232 247 248 245 196 156 154 170 149 150 140 141 136 142 149 148 153 160 164 163 165 176 184 191 200 206 210 207 208 205 195 191 190 194
215 224 220 213 224 221 213 227 235 241 236 237 236 242 164 131 130 141 141 140 143 138 133 133 134 140 150 157 160 161 167 176 185 194 199 204 206 207 211 211 207 201 203 199
220 220 210 208 212 233 217 222 242 258 271 266 209 193 148 143 144 145 139 142 139 131 132 134 134 138 141 144 149 154 158 168 178 189 194 200 203 204 208 209 207 208 202 198
257 244 207 196 204 222 239 227 233 252 269 273 241 213 185 169 160 149 139 138 132 130 129 128 132 130 129 133 134 136 149 165 173 181 192 197 194 194 203 215 214 206 205 209
242 256 226 195 201 214 219 231 236 248 254 263 254 223 128 164 165 154 138 133 133 133 128 124 122 120 123 124 125 127 136 147 160 176 185 188 182 188 196 209 218 210 203 203
225 240 243 215 205 217 219 226 226 236 250 264 266 179 126 148 164 139 121 117 115 118 117 121 123 120 120 120 123 123 127 135 143 150 159 164 169 174 181 195 199 197 188 190
213 232 239 230 207 207 224 224 229 229 239 249 259 152 137 146 153 124 120 118 119 119 119 117 114 112 111 110 112 115 120 129 133 130 133 129 128 130 143 161 165 173 175 182
222 225 236 235 217 204 217 224 223 227 232 236 240 145 155 154 144 125 120 124 124 121 118 115 110 105 102 100 99 102 100 104 114 113 109 107 108 110 119 119 120 148 168 173
230 225 237 254 260 234 223 227 225 227 234 234 207 163 175 174 146 137 133 132 130 129 118 113 111 108 104 100 98 97 94 89 88 91 90 96 107 112 110 103 97 95 110 127
222 242 236 243 253 249 234 230 230 228 231 226 172 161 155 141 129 132 136 136 131 130 123 119 112 108 103 100 97 96 95 94 95 95 91 89 101 104 100 96 97 93 94 96
207 227 243 240 235 240 240 229 222 228 227 216 180 149 141 129 132 129 132 130 131 128 117 114 111 106 102 97 93 94 91 92 92 95 96 93 104 102 96 100 98 96 93 92
222 214 233 242 238 236 240 238 223 215 211 162 131 132 131 126 115 107 109 115 114 111 110 111 113 112 110 103 93 88 90 93 92 87 84 83 93 102 104 101 97 93 90 89
225 224 232 234 234 232 224 230 220 187 173 143 136 131 129 129 117 97 94 99 100 101 102 106 106 102 95 93 94 90 84 83 81 79 79 80 83 90 95 97 97 95 94 89
216 218 234 235 237 232 232 279 302 171 161 129 128 134 139 144 140 119 107 102 96 90 89 95 98 94 89 84 89 95 90 84 79 77 75 76 76 85 92 96 99 101 102 101
206 208 222 232 241 229 244 274 285 206 141 116 125 134 138 125 104 116 113 103 97 93 90 89 89 85 80 82 89 87 82 75 71 75 76 76 77 82 87 92 98 102 102 100
208 210 215 226 233 206 149 172 134 91 83 98 108 111 107 105 110 114 114 111 105 100 98 96 94 87 78 79 88 87 81 76 75 76 76 73 73 81 87 89 92 101 108 107
212 213 210 214 131 97 94 100 99 94 93 103 106 111 117 119 120 118 114 111 106 100 97 98 100 93 83 81 87 93 89 86 84 81 77 74 69 68 67 77 84 93 107 109
194 130 135 111 109 102 96 97 93 92 95 107 112 121 122 122 121 118 114 110 104 101 101 101 101 95 86 83 87 90 92 91 87 84 81 76 73 66 56 52 51 53 54 80
266 185 128 118 124 114 102 98 96 96 100 101 106 110 114 116 114 110 105 102 100 98 95 96 97 95 91 87 86 89 94 97 94 91 89 85 80 77 69 61 48 54 48 50
335 33 140 130 140 125 117 110 107 106 105 105 106 105 106 109 112 109 102 97 95 95 94 93 95 95 92 89 87 83 89 100 102 100 95 95 94 92 93 90 75 57 62 60